KPF66Z LGIO-LBGO

Flight info

Callsign KPF66Z
Flight time 0h 59m
Altitude 41000
Route PIKOS UM600 TSL DCT EVIVI/N0454F400 Y94 DOTAM/N0456F410 T343 WAK Q24 GOL N605 GRN
Aircraft CL60/M-SBDE1E2E3FGHIJ1J4J5J7M3RWXYZ/LB1V1D1

Departure

Time 2026-05-05 13:31
Airport Ioannina King Pyrrhus National Airport (LGIO)

Arrival

Time 2026-05-05 14:30
Airport Gorna Oryahovitsa Airport (LBGO)
Time Latitude Longitude Altitude Speed Heading
2026-05-05 13:02 39.69452 20.82078 1584 ft 0 kts 143°
2026-05-05 13:28 39.69433 20.82109 1584 ft 7 kts 93°
2026-05-05 13:28 39.69470 20.82180 1579 ft 9 kts 86°
2026-05-05 13:28 39.69433 20.82268 1578 ft 13 kts 97°
2026-05-05 13:29 39.69387 20.82369 1577 ft 12 kts 141°
2026-05-05 13:29 39.69314 20.82444 1577 ft 11 kts 142°
2026-05-05 13:29 39.69268 20.82522 1576 ft 11 kts 111°
2026-05-05 13:29 39.69239 20.82619 1574 ft 12 kts 114°
2026-05-05 13:30 39.69221 20.82704 1573 ft 4 kts 34°
2026-05-05 13:30 39.69243 20.82695 1573 ft 0 kts 322°
2026-05-05 13:30 39.69247 20.82690 1573 ft 13 kts 321°
2026-05-05 13:30 39.69639 20.82288 1574 ft 123 kts 321°
2026-05-05 13:31 39.69884 20.82043 1572 ft 150 kts 322°
2026-05-05 13:31 39.70065 20.81865 1597 ft 164 kts 321°
2026-05-05 13:31 39.71019 20.80919 2334 ft 182 kts 322°
2026-05-05 13:32 39.72010 20.79919 3391 ft 188 kts 320°
2026-05-05 13:32 39.72905 20.78661 4376 ft 191 kts 305°
2026-05-05 13:32 39.73611 20.77338 5523 ft 183 kts 306°
2026-05-05 13:32 39.74371 20.75960 6509 ft 201 kts 307°
2026-05-05 13:33 39.75254 20.74429 7383 ft 225 kts 309°
2026-05-05 13:33 39.76234 20.72785 8264 ft 238 kts 302°
2026-05-05 13:33 39.76640 20.70729 9129 ft 246 kts 265°
2026-05-05 13:33 39.75969 20.68708 10045 ft 253 kts 227°
2026-05-05 13:34 39.74449 20.67570 10960 ft 260 kts 191°
2026-05-05 13:34 39.72660 20.67665 11873 ft 264 kts 164°
2026-05-05 13:34 39.71024 20.68707 12769 ft 266 kts 139°
2026-05-05 13:34 39.69875 20.70526 13665 ft 266 kts 112°
2026-05-05 13:35 39.69444 20.72839 14573 ft 265 kts 86°
2026-05-05 13:35 39.69561 20.75211 15463 ft 269 kts 81°
2026-05-05 13:35 39.69718 20.77629 16336 ft 273 kts 81°
2026-05-05 13:35 39.69872 20.80092 17223 ft 277 kts 81°
2026-05-05 13:36 39.70181 20.82582 18118 ft 276 kts 64°
2026-05-05 13:36 39.70959 20.84847 19003 ft 280 kts 59°
2026-05-05 13:36 39.71806 20.87147 19885 ft 287 kts 59°
2026-05-05 13:36 39.72661 20.89489 20766 ft 292 kts 58°
2026-05-05 13:37 39.73535 20.91886 21575 ft 300 kts 58°
2026-05-05 13:37 39.74451 20.94392 22150 ft 315 kts 58°
2026-05-05 13:37 39.75399 20.97001 22868 ft 324 kts 58°
2026-05-05 13:37 39.76364 20.99664 23675 ft 330 kts 58°
2026-05-05 13:38 39.77377 21.02445 23953 ft 354 kts 58°
2026-05-05 13:38 39.78484 21.05479 23963 ft 383 kts 59°
2026-05-05 13:38 39.79665 21.08738 23975 ft 409 kts 59°
2026-05-05 13:38 39.80904 21.12171 24229 ft 426 kts 59°
2026-05-05 13:39 39.82164 21.15680 24729 ft 435 kts 59°
2026-05-05 13:39 39.83445 21.19253 25341 ft 441 kts 59°
2026-05-05 13:39 39.84751 21.22902 25948 ft 446 kts 59°
2026-05-05 13:39 39.86057 21.26556 26609 ft 448 kts 58°
2026-05-05 13:40 39.87376 21.30251 27191 ft 452 kts 58°
2026-05-05 13:40 39.88707 21.33979 27695 ft 457 kts 58°
2026-05-05 13:40 39.90057 21.37764 28137 ft 462 kts 58°
2026-05-05 13:40 39.91416 21.41581 28600 ft 466 kts 58°
2026-05-05 13:41 39.92778 21.45411 29053 ft 470 kts 58°
2026-05-05 13:41 39.94157 21.49294 29453 ft 474 kts 58°
2026-05-05 13:41 39.95541 21.53197 29938 ft 475 kts 57°
2026-05-05 13:41 39.96929 21.57106 30527 ft 474 kts 57°
2026-05-05 13:42 39.98311 21.60983 31177 ft 471 kts 57°
2026-05-05 13:42 39.99697 21.64877 31815 ft 468 kts 57°
2026-05-05 13:42 40.01057 21.68698 32382 ft 466 kts 58°
2026-05-05 13:42 40.02410 21.72506 32980 ft 463 kts 57°
2026-05-05 13:43 40.03766 21.76327 33517 ft 460 kts 57°
2026-05-05 13:43 40.05107 21.80109 34055 ft 457 kts 57°
2026-05-05 13:43 40.06448 21.83896 34528 ft 456 kts 57°
2026-05-05 13:43 40.07785 21.87670 34880 ft 456 kts 57°
2026-05-05 13:44 40.09097 21.91384 35227 ft 455 kts 57°
2026-05-05 13:44 40.10428 21.95153 35595 ft 454 kts 57°
2026-05-05 13:44 40.11760 21.98932 35950 ft 453 kts 58°
2026-05-05 13:44 40.13050 22.02661 36249 ft 455 kts 58°
2026-05-05 13:45 40.14347 22.06469 36576 ft 455 kts 58°
2026-05-05 13:45 40.15619 22.10206 36980 ft 454 kts 58°
2026-05-05 13:45 40.16913 22.14012 37338 ft 455 kts 58°
2026-05-05 13:45 40.18200 22.17801 37701 ft 454 kts 59°
2026-05-05 13:46 40.19472 22.21552 37983 ft 456 kts 59°
2026-05-05 13:46 40.20763 22.25363 38282 ft 456 kts 59°
2026-05-05 13:46 40.22050 22.29167 38568 ft 456 kts 59°
2026-05-05 13:46 40.23327 22.32951 38917 ft 455 kts 59°
2026-05-05 13:47 40.24610 22.36756 39238 ft 454 kts 59°
2026-05-05 13:47 40.25877 22.40519 39540 ft 452 kts 59°
2026-05-05 13:47 40.27133 22.44251 39756 ft 452 kts 59°
2026-05-05 13:47 40.28412 22.48056 39964 ft 452 kts 59°
2026-05-05 13:48 40.29676 22.51795 40087 ft 452 kts 59°
2026-05-05 13:48 40.30974 22.55573 40210 ft 453 kts 59°
2026-05-05 13:48 40.32269 22.59346 40335 ft 453 kts 59°
2026-05-05 13:48 40.33546 22.63096 40470 ft 453 kts 59°
2026-05-05 13:49 40.36118 22.70697 40683 ft 454 kts 60°
2026-05-05 13:49 40.37391 22.74467 40792 ft 454 kts 60°
2026-05-05 13:49 40.38662 22.78236 40900 ft 454 kts 60°
2026-05-05 13:50 40.41219 22.85830 41007 ft 456 kts 60°
2026-05-05 13:50 40.44380 22.92980 41012 ft 450 kts 47°
2026-05-05 13:51 40.48726 22.98814 41015 ft 442 kts 32°
2026-05-05 13:51 40.53926 23.02996 41023 ft 433 kts 19°
2026-05-05 13:52 40.59537 23.05827 41037 ft 431 kts 15°
2026-05-05 13:52 40.65179 23.08571 41025 ft 430 kts 15°
2026-05-05 13:53 40.70802 23.11310 41024 ft 430 kts 15°
2026-05-05 13:53 40.76397 23.14041 41024 ft 430 kts 15°
2026-05-05 13:54 40.82030 23.16796 41028 ft 430 kts 16°
2026-05-05 13:54 40.87682 23.19563 41027 ft 431 kts 15°
2026-05-05 13:55 40.93286 23.22313 41030 ft 431 kts 16°
2026-05-05 13:55 40.98951 23.25098 41039 ft 431 kts 16°
2026-05-05 13:56 41.04582 23.27871 41032 ft 431 kts 16°
2026-05-05 13:56 41.10222 23.30653 41027 ft 431 kts 16°
2026-05-05 13:57 41.15863 23.33440 41028 ft 432 kts 16°
2026-05-05 13:57 41.21523 23.36243 41038 ft 431 kts 16°
2026-05-05 13:58 41.27138 23.39028 41044 ft 432 kts 16°
2026-05-05 13:58 41.32773 23.41828 41048 ft 432 kts 16°
2026-05-05 13:59 41.41404 23.45189 41044 ft 425 kts
2026-05-05 14:00 41.49260 23.45110 41028 ft 422 kts 355°
2026-05-05 14:00 41.56116 23.44766 41065 ft 421 kts 355°
2026-05-05 14:01 41.62007 23.44469 41088 ft 422 kts 355°
2026-05-05 14:01 41.67888 23.44172 41098 ft 423 kts 355°
2026-05-05 14:02 41.73767 23.43875 41097 ft 423 kts 355°
2026-05-05 14:02 41.79698 23.43574 41102 ft 423 kts 355°
2026-05-05 14:03 41.85564 23.43277 41101 ft 423 kts 355°
2026-05-05 14:03 41.91486 23.42976 41109 ft 423 kts 355°
2026-05-05 14:04 41.97351 23.42677 41105 ft 424 kts 355°
2026-05-05 14:04 42.03280 23.42374 41102 ft 424 kts 355°
2026-05-05 14:05 42.09191 23.42072 41104 ft 424 kts 355°
2026-05-05 14:05 42.15100 23.41770 41101 ft 424 kts 355°
2026-05-05 14:06 42.21038 23.41465 41093 ft 424 kts 355°
2026-05-05 14:06 42.23991 23.41312 40929 ft 429 kts 355°
2026-05-05 14:06 42.26962 23.41159 40466 ft 429 kts 355°
2026-05-05 14:07 42.29969 23.41004 39910 ft 428 kts 355°
2026-05-05 14:07 42.32952 23.41053 39269 ft 426 kts
2026-05-05 14:07 42.35840 23.41761 38715 ft 425 kts 12°
2026-05-05 14:07 42.38599 23.43163 38150 ft 423 kts 22°
2026-05-05 14:08 42.41102 23.45193 37605 ft 424 kts 31°
2026-05-05 14:08 42.43346 23.47859 37030 ft 428 kts 41°
2026-05-05 14:08 42.45321 23.50916 36443 ft 433 kts 44°
2026-05-05 14:08 42.47303 23.54055 35896 ft 436 kts 44°
2026-05-05 14:09 42.49275 23.57141 35283 ft 437 kts 44°
2026-05-05 14:09 42.51302 23.60278 34700 ft 437 kts 43°
2026-05-05 14:09 42.53313 23.63356 34089 ft 436 kts 43°
2026-05-05 14:09 42.55337 23.66419 33529 ft 436 kts 43°
2026-05-05 14:10 42.57377 23.69467 32948 ft 436 kts 43°
2026-05-05 14:10 42.59480 23.72452 32366 ft 435 kts 40°
2026-05-05 14:10 42.61647 23.75299 31796 ft 434 kts 38°
2026-05-05 14:10 42.63904 23.78033 31212 ft 434 kts 37°
2026-05-05 14:11 42.66173 23.80719 30642 ft 434 kts 36°
2026-05-05 14:11 42.68581 23.83182 30062 ft 431 kts 31°
2026-05-05 14:11 42.71035 23.85488 29499 ft 432 kts 31°
2026-05-05 14:11 42.73502 23.87813 28922 ft 432 kts 31°
2026-05-05 14:12 42.75968 23.90142 28352 ft 428 kts 31°
2026-05-05 14:12 42.78422 23.92463 27789 ft 424 kts 31°
2026-05-05 14:12 42.80850 23.94761 27220 ft 420 kts 31°
2026-05-05 14:12 42.83229 23.97016 26665 ft 416 kts 31°
2026-05-05 14:13 42.85598 23.99263 26107 ft 412 kts 32°
2026-05-05 14:13 42.87927 24.01474 25565 ft 409 kts 32°
2026-05-05 14:13 42.90274 24.03703 25008 ft 406 kts 32°
2026-05-05 14:13 42.92572 24.05889 24471 ft 402 kts 32°
2026-05-05 14:14 42.94848 24.08056 23936 ft 399 kts 32°
2026-05-05 14:14 42.97118 24.10219 23411 ft 396 kts 32°
2026-05-05 14:14 42.99373 24.12369 22882 ft 392 kts 32°
2026-05-05 14:14 43.01598 24.14494 22352 ft 389 kts 32°
2026-05-05 14:15 43.03810 24.16607 21840 ft 386 kts 33°
2026-05-05 14:15 43.05976 24.18716 21331 ft 384 kts 36°
2026-05-05 14:15 43.07856 24.21328 20786 ft 385 kts 50°
2026-05-05 14:15 43.09158 24.24539 20248 ft 387 kts 65°
2026-05-05 14:16 43.09774 24.28123 19656 ft 390 kts 80°
2026-05-05 14:16 43.09955 24.31795 19114 ft 386 kts 83°
2026-05-05 14:16 43.10114 24.35444 18619 ft 385 kts 83°
2026-05-05 14:16 43.10276 24.39104 18108 ft 381 kts 83°
2026-05-05 14:17 43.10435 24.42710 17604 ft 378 kts 83°
2026-05-05 14:17 43.10591 24.46268 17110 ft 373 kts 83°
2026-05-05 14:17 43.10744 24.49799 16622 ft 368 kts 83°
2026-05-05 14:17 43.10892 24.53250 16136 ft 362 kts 83°
2026-05-05 14:18 43.11039 24.56667 15661 ft 356 kts 83°
2026-05-05 14:18 43.11182 24.60041 15185 ft 351 kts 83°
2026-05-05 14:18 43.11321 24.63312 14735 ft 345 kts 83°
2026-05-05 14:18 43.11457 24.66577 14286 ft 339 kts 84°
2026-05-05 14:19 43.11593 24.69825 13834 ft 335 kts 84°
2026-05-05 14:19 43.11724 24.72982 13388 ft 330 kts 84°
2026-05-05 14:19 43.11852 24.76085 12948 ft 324 kts 84°
2026-05-05 14:19 43.11977 24.79140 12526 ft 319 kts 84°
2026-05-05 14:20 43.12101 24.82165 12100 ft 314 kts 84°
2026-05-05 14:20 43.12220 24.85116 11689 ft 310 kts 84°
2026-05-05 14:20 43.12339 24.88065 11277 ft 305 kts 84°
2026-05-05 14:20 43.12453 24.90923 10873 ft 300 kts 84°
2026-05-05 14:21 43.12566 24.93761 10479 ft 295 kts 84°
2026-05-05 14:21 43.12676 24.96527 10087 ft 291 kts 84°
2026-05-05 14:21 43.12784 24.99298 9702 ft 286 kts 84°
2026-05-05 14:21 43.12888 25.01999 9294 ft 284 kts 84°
2026-05-05 14:22 43.12990 25.04672 8930 ft 279 kts 84°
2026-05-05 14:22 43.13090 25.07311 8560 ft 276 kts 84°
2026-05-05 14:22 43.13188 25.09909 8195 ft 272 kts 84°
2026-05-05 14:22 43.13286 25.12476 7782 ft 271 kts 84°
2026-05-05 14:23 43.13389 25.15063 7244 ft 274 kts 84°
2026-05-05 14:23 43.13573 25.17652 6958 ft 264 kts 77°
2026-05-05 14:23 43.13919 25.20066 6755 ft 255 kts 76°
2026-05-05 14:23 43.14260 25.22419 6415 ft 252 kts 76°
2026-05-05 14:24 43.14595 25.24750 6098 ft 248 kts 76°
2026-05-05 14:24 43.14928 25.27067 5764 ft 245 kts 76°
2026-05-05 14:24 43.15252 25.29325 5447 ft 242 kts 76°
2026-05-05 14:24 43.15574 25.31585 5132 ft 239 kts 76°
2026-05-05 14:25 43.15892 25.33815 4809 ft 236 kts 77°
2026-05-05 14:25 43.16204 25.36005 4499 ft 233 kts 77°
2026-05-05 14:25 43.16509 25.38152 4194 ft 230 kts 77°
2026-05-05 14:25 43.16814 25.40305 3887 ft 228 kts 77°
2026-05-05 14:26 43.17115 25.42428 3583 ft 225 kts 77°
2026-05-05 14:26 43.17413 25.44538 3285 ft 223 kts 77°
2026-05-05 14:26 43.17661 25.46608 3043 ft 218 kts 87°
2026-05-05 14:26 43.17516 25.48618 3012 ft 204 kts 98°
2026-05-05 14:27 43.17298 25.50483 3025 ft 195 kts 97°
2026-05-05 14:27 43.17105 25.52323 3009 ft 196 kts 96°
2026-05-05 14:27 43.16913 25.54200 2854 ft 202 kts 96°
2026-05-05 14:27 43.16711 25.56132 2329 ft 207 kts 96°
2026-05-05 14:28 43.16514 25.58022 2004 ft 194 kts 96°
2026-05-05 14:28 43.16328 25.59831 1734 ft 180 kts 96°
2026-05-05 14:28 43.16163 25.61434 1518 ft 163 kts 96°
2026-05-05 14:28 43.16013 25.62904 1299 ft 146 kts 96°
2026-05-05 14:29 43.15879 25.64211 1130 ft 130 kts 96°
2026-05-05 14:29 43.15753 25.65456 966 ft 132 kts 96°
2026-05-05 14:29 43.15625 25.66691 755 ft 131 kts 96°
2026-05-05 14:29 43.15493 25.67918 591 ft 130 kts 97°
2026-05-05 14:30 43.15366 25.69146 422 ft 131 kts 97°
2026-05-05 14:30 43.15237 25.70373 304 ft 122 kts 97°
2026-05-05 14:30 43.15139 25.71343 298 ft 75 kts 99°
2026-05-05 14:30 43.15089 25.71809 297 ft 21 kts 98°
2026-05-05 14:31 43.15064 25.71917 296 ft 10 kts 159°
2026-05-05 14:31 43.14985 25.71909 297 ft 8 kts 188°
2026-05-05 14:31 43.14934 25.71900 297 ft 7 kts 188°
2026-05-05 14:31 43.14875 25.71890 297 ft 9 kts 187°
2026-05-05 14:32 43.14817 25.71878 298 ft 6 kts 181°
2026-05-05 14:32 43.14780 25.71910 298 ft 9 kts 117°
2026-05-05 14:32 43.14754 25.71968 298 ft 4 kts 144°
2026-05-05 14:32 43.14695 25.72003 298 ft 7 kts 191°
2026-05-05 14:33 43.14673 25.71955 298 ft 14 kts 259°
2026-05-05 14:33 43.14677 25.71864 298 ft 5 kts 285°
2026-05-05 14:33 43.14685 25.71850 298 ft 0 kts 334°